[[{"header":{"parameterUnit":"m.s-1","parameterCategory":1,"la1":30.2991,"la2":30.254,"lo1":-89.0895,"lo2":-89.0444,"dy":0.0017,"dx":0.0017,"nx":28,"ny":28,"refTime":"2026-02-15T09:00:00:Z","depth":0,"parameterNumber":2,"parameterNumberName":"U-component_of_WINDS"},"data":[0,0,0,0,0,0,0,0,0,0,0,0,0,0,0,0,0,0,0,0,0,0,0,0,0,0,0,0,0,0,0,0,0,0,0,0,0,0,0,0,0,0,0,0,0,0,0,0,0,0,0,0,0,0,0,0,0,0,-3.0694,-3.0696,0,-3.0861,-3.0863,-3.0865,-3.0892,-3.0891,-3.0889,-3.0888,-3.1062,-3.1068,-3.1073,0,0,0,0,0,0,0,0,0,0,0,0,0,-3.0402,-3.0407,-3.0694,-3.0696,-3.0698,-3.0861,-3.0863,-3.0866,-3.0893,-3.0891,-3.0889,-3.0887,-3.106,-3.1067,-3.1074,0,0,0,0,0,0,0,0,0,0,0,0,0,-3.0545,-3.0409,-3.0693,-3.0731,-3.0736,-3.0861,-3.0863,-3.0866,-3.0893,-3.0891,-3.0889,-3.0886,-3.1057,-3.1066,-3.1075,-3.1174,0,0,-3.1102,-3.1106,0,0,0,0,0,0,0,0,-3.0537,-3.0555,-3.0723,-3.0729,-3.0734,-3.0854,-3.0824,-3.097,-3.0893,-3.0833,-3.0888,-3.0885,-3.0994,-3.1008,-3.1045,-3.1183,-3.119,-3.1103,-3.1109,-3.1113,-3.1115,0,0,0,0,0,0,0,-3.0527,-3.0548,-3.076,-3.0726,-3.0733,-3.0741,-3.0759,-3.0852,-3.0924,-3.0838,-3.0841,-3.086,-3.0997,-3.1036,-3.1049,-3.1193,-3.1103,-3.1111,-3.1117,-3.112,-3.1423,-3.1426,0,0,0,0,0,0,-3.051,-3.054,-3.0755,-3.0765,-3.0628,-3.0748,-3.0768,-3.0818,-3.0923,-3.0937,-3.0862,-3.0861,-3.1022,-3.1038,-3.1055,-3.118,-3.1112,-3.1121,-3.1126,-3.1421,-3.1424,-3.1427,0,0,0,0,0,0,-3.0503,-3.0528,-3.0748,-3.0653,-3.0682,-3.0755,-3.0811,-3.0822,-3.0861,-3.0941,-3.0954,-3.0888,-3.1021,-3.1043,-3.1145,-3.1186,-3.1125,-3.1133,-3.1418,-3.1422,-3.1425,-3.1428,0,0,0,0,0,0,-3.0495,-3.0526,-3.0563,-3.0654,-3.0687,-3.0834,-3.0813,-3.0827,-3.0876,-3.0876,-3.0969,-3.0982,-3.1021,-3.1131,-3.1154,-3.1197,-3.114,-3.1414,-3.1419,-3.1424,-3.1425,-3.1432,-3.1438,0,0,0,0,0,-3.0484,-3.0557,-3.0565,-3.0591,-3.0735,-3.0836,-3.0855,-3.0897,-3.0879,-3.0918,-3.097,-3.0979,-3.1178,-3.1142,-3.1167,-3.1214,-3.1412,-3.1418,-3.1424,-3.1422,-3.1431,-3.1438,0,0,0,0,0,0,-3.0469,-3.057,-3.0579,-3.0684,-3.0751,-3.084,-3.089,-3.0904,-3.0978,-3.0975,-3.1025,-3.1046,-3.1146,-3.1191,-3.1148,-3.1317,-3.1294,-3.1305,-3.1284,-3.1293,-3.1299,-3.1286,-3.1148,0,0,0,0,0,-3.0478,-3.0551,-3.0635,-3.0719,-3.0753,-3.0816,-3.0861,-3.0888,-3.096,-3.0989,-3.1048,-3.1118,-3.1197,-3.1248,-3.1324,-3.1433,-3.1454,-3.1478,-3.1484,-3.1489,-3.1498,-3.156,-3.1572,-3.1447,-3.1447,-3.1446,0,0,-3.0497,-3.0561,-3.0604,-3.0718,-3.0773,-3.0849,-3.0839,-3.0919,-3.0976,-3.1001,-3.1101,-3.1148,-3.123,-3.1336,-3.1386,-3.1376,-3.1538,-3.1497,-3.15,-3.1506,-3.1568,-3.1579,-3.159,-3.1451,-3.145,-3.1449,0,0,-3.057,-3.0625,-3.0702,-3.0758,-3.0842,-3.0884,-3.0903,-3.0991,-3.1023,-3.1124,-3.1145,-3.1215,-3.1349,-3.1407,-3.1454,-3.1553,-3.1565,-3.1577,-3.161,-3.1671,-3.168,-3.1689,-3.1725,-3.1737,-3.1586,-3.1586,-3.1586,0,-3.0582,-3.0696,-3.074,-3.0819,-3.087,-3.0897,-3.0976,-3.1029,-3.1134,-3.1169,-3.1157,-3.1327,-3.1384,-3.1505,-3.153,-3.1567,-3.1591,-3.1565,-3.1675,-3.1685,-3.1694,-3.1729,-3.1742,-3.1587,-3.1587,-3.1587,-3.1586,0,-3.0708,-3.0787,-3.0839,-3.0939,-3.0996,-3.1075,-3.1133,-3.1185,-3.1209,-3.1252,-3.1357,-3.1427,-3.1519,-3.155,-3.1573,-3.1676,-3.1667,-3.1665,-3.1642,-3.1706,-3.1739,-3.1753,-3.1588,-3.1588,-3.1587,-3.1587,0,0,-3.0773,-3.0899,-3.0917,-3.0964,-3.1061,-3.1123,-3.1205,-3.1295,-3.1339,-3.1412,-3.1482,-3.1597,-3.1596,-3.165,-3.168,-3.1733,-3.1808,-3.1725,-3.1728,-3.1738,-3.1927,-3.1927,-3.1941,-3.1818,-3.1821,-3.1823,-3.192,0,-3.0856,-3.1001,-3.1045,-3.1166,-3.1241,-3.1269,-3.1341,-3.1409,-3.1453,-3.1524,-3.1574,-3.1654,-3.1647,-3.1679,-3.1733,-3.1788,-3.1847,-3.1782,-3.1885,-3.1888,-3.1861,-3.1959,-3.1959,-3.2047,-3.1933,-3.1935,-3.1937,0,-3.0972,-3.1047,-3.1176,-3.1265,-3.1298,-3.1361,-3.1449,-3.1516,-3.1595,-3.1623,-3.1685,-3.1712,-3.18,-3.1774,-3.1898,-3.1852,-3.1898,-3.1932,-3.1936,-3.1946,-3.1915,-3.1971,-3.2076,-3.2088,-3.1958,-3.1956,-3.1955,0,-3.1006,-3.114,-3.1235,-3.1274,-3.1381,-3.1425,-3.1471,-3.1548,-3.16,-3.1678,-3.1712,-3.1799,-3.1846,-3.1914,-3.1965,-3.1941,-3.2084,-3.2062,-3.2111,-3.211,-3.2138,-3.2135,-3.2251,-3.2169,-3.2169,-3.2169,-3.2169,0,-3.1094,-3.1172,-3.1252,-3.131,-3.1399,-3.145,-3.1537,-3.1586,-3.1655,-3.1724,-3.1756,-3.182,-3.1884,-3.1958,-3.1998,-3.2095,-3.2117,-3.2143,-3.2153,-3.214,-3.2136,-3.2169,-3.2164,-3.2172,-3.2172,-3.2171,-3.217,0,-3.1146,-3.1202,-3.1308,-3.1401,-3.1426,-3.1488,-3.1568,-3.1627,-3.1674,-3.1762,-3.1786,-3.1859,-3.1949,-3.2006,-3.212,-3.2148,-3.2253,-3.2262,-3.2226,-3.223,-3.2276,-3.2271,-3.2416,-3.2438,-3.2342,-3.2343,-3.2343,0,-3.1198,-3.1258,-3.1358,-3.1407,-3.1454,-3.1532,-3.1586,-3.164,-3.1695,-3.1791,-3.1839,-3.193,-3.2005,-3.2147,-3.2212,-3.23,-3.231,-3.2355,-3.2323,-3.2309,-3.2311,-3.2306,-3.2313,-3.2359,-3.236,-3.2361,-3.2361,0,-3.1284,-3.1309,-3.1385,-3.1471,-3.1534,-3.1605,-3.1676,-3.1715,-3.1782,-3.1843,-3.1934,-3.1993,-3.211,-3.22,-3.2295,-3.2345,-3.2365,-3.2371,-3.2387,-3.2374,-3.235,-3.2364,-3.2239,-3.2367,-3.2366,-3.2366,-3.2366,-3.2365,-3.1337,-3.1393,-3.1472,-3.1556,-3.1616,-3.1682,-3.1742,-3.1797,-3.1874,-3.1973,-3.2001,-3.2097,-3.2178,-3.2307,-3.2359,-3.2436,-3.243,-3.2453,-3.2459,-3.2464,-3.2464,-3.2339,-3.2453,-3.2453,-3.2453,-3.2453,-3.2453,0,-3.1424,-3.1477,-3.1554,-3.1653,-3.172,-3.1733,-3.1814,-3.1869,-3.1952,-3.2026,-3.21,-3.2206,-3.2295,-3.2368,-3.2461,-3.2508,-3.252,-3.2531,-3.2527,-3.2539,-3.2464,-3.244,-3.252,-3.252,-3.252,-3.252,-3.252,-3.252,-3.1477,-3.1573,-3.1608,-3.1735,-3.1788,-3.1881,-3.1926,-3.1989,-3.2048,-3.2165,-3.2239,-3.2286,-3.236,-3.2458,-3.2542,-3.2561,-3.2593,-3.2602,-3.2623,-3.2551,-3.2544,-3.2537,-3.2515,-3.2609,-3.2609,-3.2692,-3.2693,-3.2693]},{"header":{"parameterUnit":"m.s-1","parameterCategory":1,"la1":30.2991,"la2":30.254,"lo1":-89.0895,"lo2":-89.0444,"dy":0.0017,"dx":0.0017,"nx":28,"ny":28,"refTime":"2026-02-15T09:00:00:Z","depth":0,"parameterNumber":3,"parameterNumberName":"V-component_of_WINDS"},"data":[0,0,0,0,0,0,0,0,0,0,0,0,0,0,0,0,0,0,0,0,0,0,0,0,0,0,0,0,0,0,0,0,0,0,0,0,0,0,0,0,0,0,0,0,0,0,0,0,0,0,0,0,0,0,0,0,0,0,2.3994,2.3995,0,2.4046,2.4046,2.4047,2.4017,2.4015,2.4014,2.4013,2.4066,2.4069,2.4072,0,0,0,0,0,0,0,0,0,0,0,0,0,2.3873,2.3875,2.3994,2.3995,2.3995,2.4045,2.4046,2.4047,2.4017,2.4015,2.4014,2.4012,2.4066,2.4069,2.4072,0,0,0,0,0,0,0,0,0,0,0,0,0,2.3925,2.3876,2.3994,2.3986,2.3986,2.4045,2.4046,2.4047,2.4018,2.4015,2.4013,2.4011,2.4064,2.4069,2.4073,2.4142,0,0,2.4085,2.4087,0,0,0,0,0,0,0,0,2.3922,2.393,2.3987,2.3987,2.3987,2.4023,2.4023,2.4079,2.4018,2.4006,2.4013,2.401,2.4054,2.4059,2.4073,2.4145,2.4147,2.4086,2.4088,2.409,2.4091,0,0,0,0,0,0,0,2.3919,2.3927,2.4014,2.3988,2.3988,2.3982,2.3987,2.4034,2.4041,2.4007,2.4005,2.4011,2.4053,2.4069,2.4074,2.4148,2.4086,2.4089,2.4092,2.4094,2.4282,2.4284,0,0,0,0,0,0,2.3915,2.3924,2.4013,2.4016,2.3949,2.3986,2.3991,2.4013,2.4041,2.4043,2.4013,2.4009,2.4063,2.4069,2.4076,2.4161,2.409,2.4094,2.4096,2.4279,2.4282,2.4285,0,0,0,0,0,0,2.3913,2.3923,2.4011,2.397,2.398,2.399,2.4015,2.4016,2.4031,2.4045,2.4047,2.4027,2.4062,2.407,2.4126,2.4162,2.4096,2.41,2.4276,2.428,2.4284,2.433,0,0,0,0,0,0,2.3909,2.3923,2.3948,2.397,2.3983,2.4059,2.4017,2.4018,2.4038,2.4035,2.4059,2.4062,2.4061,2.412,2.4131,2.4167,2.4103,2.4273,2.4278,2.4283,2.4325,2.4334,2.4343,0,0,0,0,0,2.3905,2.3959,2.395,2.396,2.4015,2.4062,2.4069,2.4066,2.4041,2.4068,2.4078,2.4061,2.4157,2.4126,2.4138,2.4175,2.4271,2.4277,2.4282,2.4321,2.4333,2.4342,0,0,0,0,0,0,2.394,2.3961,2.3951,2.4014,2.4036,2.4056,2.4089,2.4078,2.4108,2.4103,2.4099,2.4105,2.4164,2.4175,2.4141,2.4246,2.421,2.4218,2.4236,2.4247,2.4255,2.4251,2.4107,0,0,0,0,0,2.3955,2.3991,2.4008,2.4061,2.4073,2.408,2.41,2.4096,2.4119,2.4129,2.4142,2.4166,2.4201,2.4225,2.4258,2.4327,2.4333,2.4359,2.4367,2.4375,2.4382,2.4421,2.4433,2.4303,2.4303,2.4303,0,0,2.3986,2.4002,2.4025,2.4069,2.4085,2.4124,2.4087,2.4129,2.4157,2.4135,2.4189,2.42,2.4227,2.429,2.4319,2.4301,2.4419,2.4382,2.4387,2.439,2.4428,2.444,2.4451,2.4307,2.4307,2.4306,0,0,2.4063,2.4078,2.4125,2.4143,2.4169,2.4174,2.4185,2.4208,2.4215,2.4269,2.4254,2.4289,2.4349,2.4369,2.4387,2.4475,2.4461,2.4486,2.4532,2.457,2.458,2.4589,2.4622,2.4633,2.4493,2.4493,2.4493,0,2.4098,2.4154,2.415,2.4194,2.4214,2.4196,2.4245,2.4263,2.4299,2.4314,2.4294,2.4372,2.4388,2.4457,2.4479,2.4494,2.4508,2.4483,2.4579,2.4588,2.4596,2.4627,2.4639,2.4496,2.4496,2.4495,2.4495,0,2.4197,2.4236,2.4271,2.4307,2.4332,2.4377,2.4382,2.4408,2.4403,2.441,2.4467,2.4487,2.4525,2.4541,2.4536,2.461,2.4598,2.4579,2.4543,2.4612,2.4641,2.4652,2.45,2.4499,2.4498,2.4498,0,0,2.4295,2.433,2.4343,2.436,2.4389,2.442,2.4466,2.4503,2.4526,2.4552,2.4591,2.4645,2.4628,2.4649,2.4646,2.468,2.475,2.4657,2.4657,2.4674,2.4834,2.4849,2.4863,2.4741,2.4744,2.4745,2.4832,0,2.4373,2.4453,2.4453,2.4527,2.4564,2.4549,2.459,2.4613,2.4621,2.4655,2.4665,2.4703,2.4677,2.469,2.4723,2.4734,2.4782,2.4728,2.4779,2.4781,2.4773,2.4877,2.4892,2.4973,2.4844,2.4846,2.4847,0,2.4475,2.4506,2.4584,2.4609,2.4625,2.4661,2.4697,2.4729,2.4756,2.476,2.4785,2.4778,2.4826,2.479,2.4858,2.4821,2.4842,2.4851,2.4855,2.4859,2.4818,2.4885,2.4999,2.5011,2.4865,2.4863,2.4862,0,2.454,2.4601,2.4655,2.467,2.4701,2.4728,2.4742,2.4767,2.479,2.4822,2.4837,2.4874,2.4894,2.4923,2.4928,2.49,2.4996,2.496,2.5002,2.5002,2.5022,2.5021,2.5141,2.5036,2.5036,2.5035,2.5035,0,2.4628,2.4676,2.4685,2.4719,2.4774,2.4774,2.4828,2.4841,2.4863,2.49,2.489,2.4925,2.4928,2.4965,2.4969,2.5025,2.5034,2.504,2.504,2.5041,2.504,2.5054,2.5049,2.5039,2.5038,2.5037,2.5037,0,2.4709,2.4717,2.4776,2.4801,2.4809,2.4848,2.4871,2.4904,2.4912,2.496,2.4971,2.4984,2.5027,2.5035,2.5085,2.5088,2.5155,2.515,2.5146,2.5146,2.5188,2.5184,2.5322,2.5341,2.5222,2.5223,2.5224,0,2.4764,2.4802,2.4832,2.4856,2.4872,2.491,2.4935,2.4937,2.4963,2.4998,2.5028,2.5069,2.5103,2.5173,2.5188,2.5227,2.5223,2.5268,2.5228,2.5229,2.5224,2.5222,2.5227,2.5276,2.5277,2.5278,2.5279,0,2.4863,2.4865,2.49,2.4938,2.4967,2.4996,2.5024,2.5045,2.5051,2.5081,2.5125,2.5152,2.5204,2.5246,2.5286,2.5302,2.5292,2.5292,2.5304,2.5305,2.5301,2.5305,2.5168,2.5288,2.5287,2.5287,2.5286,2.5286,2.4933,2.4966,2.4993,2.5033,2.5055,2.5082,2.5115,2.5128,2.5165,2.5208,2.5207,2.5256,2.5285,2.5337,2.5356,2.5394,2.538,2.5397,2.5401,2.5406,2.541,2.5295,2.5402,2.5401,2.5401,2.5401,2.5401,0,2.5032,2.5049,2.5086,2.5126,2.5158,2.5146,2.5177,2.5205,2.5248,2.5275,2.5309,2.5361,2.5403,2.5422,2.5464,2.5491,2.5488,2.5502,2.55,2.5505,2.542,2.5406,2.5504,2.5504,2.5504,2.5504,2.5504,2.5504,2.5087,2.5143,2.5149,2.5216,2.5233,2.5281,2.53,2.5326,2.5347,2.5406,2.5441,2.5453,2.5478,2.5521,2.556,2.5565,2.5581,2.5597,2.56,2.5521,2.551,2.55,2.5487,2.56,2.5601,2.5681,2.5682,2.5682]}]]